Omaha, NE

7:56 PM CDT on March 29, 2017 (GMT -0500)
Eppley Airfield

Weather History for KOMA - August, 2012

Change the Weather History Date:

Wednesday, August 29, 2012

  Actual Average Record
Temperature  
Mean Temperature 84 °F 72 °F  
Max Temperature 98 °F 83 °F 98 °F (1948)
Min Temperature 69 °F 61 °F 44 °F (1946)
Degree Days  
Heating Degree Days 0 1  
Month to date heating degree days 6 1  
Since 1 June heating degree days 15 19  
Since 1 July heating degree days 6 2  
Cooling Degree Days 19 8  
Month to date cooling degree days 309 287  
Year to date cooling degree days 1509 964  
Since 1 June cooling degree days 1281 882  
Growing Degree Days 34 (Base 50)    
Moisture  
Dew Point 57 °F    
Average Humidity 46    
Maximum Humidity 70    
Minimum Humidity 21    
Precipitation  
Precipitation 0.00 in 0.11 in 1.67 in (1993)
Month to date precipitation 2.39 3.60  
Year to date precipitation 16.72 22.89  
Snow  
Snow 0.00 in 0.00 in - ()
Month to date snowfall 0.0 0.0  
Since 1 July snowfall 0.0 0.0  
Snow Depth 0.00 in    
Sea Level Pressure  
Sea Level Pressure 29.89 in    
Wind  
Wind Speed 12 mph (South)    
Max Wind Speed 23 mph    
Max Gust Speed 29 mph    
Visibility 10 miles    
Events      
T = Trace of Precipitation, MM = Missing Value Source: NWS Daily Summary

Daily Weather History Graph

Daily Weather History Graph

Search for Another Location

Airport or City:

Trip Planner

Search our weather history database for the weather conditions in past years. The results will help you decide how hot, cold, wet, or windy it might be!

Date:

Astronomy

Aug. 29, 2012 Rise Set
Actual Time 6:47 AM CDT 8:00 PM CDT
Civil Twilight 6:18 AM CDT 8:28 PM CDT
Nautical Twilight 5:44 AM CDT 9:02 PM CDT
Astronomical Twilight 5:08 AM CDT 9:38 PM CDT
Moon 6:41 PM CDT (8/29) 4:43 AM CDT (8/29)
Length of Visible Light 14h 09m
Length of Day
13h 12m
Waxing Gibbous, 96% of the Moon is Illuminated
Aug 29
Waxing Gibbous
Aug 31
Full
Sep 8
Last Quarter
Sep 15
New
Sep 22
First Quarter

Hourly Weather History & Observations

Time (CDT) Temp. Heat Index Dew Point Humidity Pressure Visibility Wind Dir Wind Speed Gust Speed Precip Events Conditions
12:52 AM 73.0 °F - 60.1 °F 64% 29.94 in 10.0 mi South 8.1 mph - N/A   Scattered Clouds
1:52 AM 71.1 °F - 60.1 °F 68% 29.93 in 10.0 mi SSE 9.2 mph - N/A   Partly Cloudy
2:52 AM 71.6 °F - 59.0 °F 64% 29.96 in 10.0 mi SSE 10.4 mph - N/A   Scattered Clouds
3:52 AM 69.1 °F - 59.0 °F 70% 29.94 in 10.0 mi SSE 8.1 mph - N/A   Scattered Clouds
4:52 AM 71.1 °F - 59.0 °F 66% 29.93 in 10.0 mi SSE 11.5 mph - N/A   Scattered Clouds
5:52 AM 69.1 °F - 57.9 °F 68% 29.95 in 10.0 mi SSE 5.8 mph - N/A   Mostly Cloudy
6:52 AM 71.1 °F - 57.9 °F 63% 29.93 in 10.0 mi ESE 12.7 mph - N/A   Mostly Cloudy
7:52 AM 72.0 °F - 57.9 °F 61% 29.95 in 10.0 mi SSE 10.4 mph - N/A   Mostly Cloudy
8:52 AM 75.9 °F - 57.9 °F 54% 29.96 in 10.0 mi SSE 6.9 mph - N/A   Scattered Clouds
9:52 AM 81.0 °F 80.8 °F 55.9 °F 42% 29.94 in 10.0 mi SSW 9.2 mph 19.6 mph N/A   Scattered Clouds
10:52 AM 86.0 °F 84.9 °F 57.0 °F 37% 29.94 in 10.0 mi SSW 13.8 mph 20.7 mph N/A   Scattered Clouds
11:52 AM 91.9 °F 89.5 °F 54.0 °F 27% 29.92 in 10.0 mi SW 16.1 mph 25.3 mph N/A   Scattered Clouds
12:52 PM 93.9 °F - 52.0 °F 24% 29.90 in 10.0 mi SW 17.3 mph 27.6 mph N/A   Partly Cloudy
1:52 PM 95.0 °F 92.5 °F 53.1 °F 24% 29.88 in 10.0 mi SSW 13.8 mph 25.3 mph N/A   Partly Cloudy
2:52 PM 96.1 °F 93.8 °F 54.0 °F 24% 29.86 in 10.0 mi South 17.3 mph 24.2 mph N/A   Partly Cloudy
3:52 PM 97.0 °F - 52.0 °F 22% 29.84 in 10.0 mi SSW 16.1 mph - N/A   Partly Cloudy
4:52 PM 97.0 °F - 50.0 °F 20% 29.83 in 10.0 mi SSW 19.6 mph 27.6 mph N/A   Partly Cloudy
5:52 PM 96.1 °F - 52.0 °F 22% 29.82 in 10.0 mi SSW 12.7 mph - N/A   Partly Cloudy
6:52 PM 93.9 °F 91.7 °F 54.0 °F 26% 29.82 in 10.0 mi South 15.0 mph 19.6 mph N/A   Partly Cloudy
7:52 PM 90.0 °F 88.8 °F 57.9 °F 34% 29.82 in 10.0 mi South 11.5 mph - N/A   Partly Cloudy
8:52 PM 88.0 °F 87.1 °F 59.0 °F 37% 29.83 in 10.0 mi South 13.8 mph - N/A   Partly Cloudy
9:52 PM 84.9 °F 84.8 °F 60.1 °F 43% 29.84 in 10.0 mi South 9.2 mph - N/A   Partly Cloudy
10:52 PM 82.9 °F 83.3 °F 61.0 °F 47% 29.84 in 10.0 mi South 11.5 mph - N/A   Partly Cloudy
11:52 PM 84.0 °F 83.8 °F 59.0 °F 43% 29.85 in 10.0 mi South 10.4 mph - N/A   Partly Cloudy